Flag for Japan Weather past 2 weeks in Sapporo, Japan

Now
70 °F

Mild.


Feels Like: 70 °F
Forecast: 54 / 67 °F
Wind: 5 mph from North

Location: Sapporo

Current Time: Jul 6, 2015 at 6:34:04 PM

Latest Report: Jul 6, 2015 at 5:00 PM


Visibility: N/A

Pressure: 29.83 "Hg

Humidity: 65%

Dew point: 57 °F

Location of SapporoLocation

Historic Weather in Sapporo — Graph

°F

Sapporo temperature yesterday

Maximum temperature yesterday: 73 °F (at 11:00 AM)
Minimum temperature yesterday: 59 °F (at 5:00 AM)
Average temperature yesterday: 64 °F

Past Weeks' High & Low Weather Summary

 TemperatureHumidityPressure
High76 °F (Jun 26, 1:00 PM)94% (Jun 23, 8:00 PM)29.93 "Hg (Jun 23, 8:00 PM)
Low55 °F (Jun 28, 5:00 AM)47% (Jul 2, 12:00 PM)29.32 "Hg (Jul 1, 5:00 PM)
Average63 °F77%29.74 "Hg
* Reported Jun 21 5:00 PM — Jul 6 5:00 PM, Sapporo, Weather by CustomWeather, © 2015

Note: Actual official high and low records may vary slightly from our data, if they occured in-between our weather recording intervals... More about our weather records

Advertising

Sapporo weather history for previous 24 hours

 ConditionsComfort  
Time TempWeatherWind HumidityBarometerVisibility
5:00 PM
Mon, Jul 6
70 °FMild.5 mph65%29.83 "HgN/A
4:00 PM69 °FMild.5 mph67%29.85 "HgN/A
3:00 PM69 °FScattered clouds.12 mph65%29.86 "Hg12 mi
2:00 PM72 °FMild.13 mph60%29.86 "HgN/A
1:00 PM73 °FMild.10 mph58%29.86 "HgN/A
11:00 AM74 °FMild.3 mph52%29.87 "HgN/A
10:00 AM70 °FMild.1 mph59%29.90 "HgN/A
9:00 AM68 °FPartly sunny.2 mph63%29.91 "Hg12 mi
8:00 AM65 °FMild.2 mph69%29.92 "HgN/A
7:00 AM64 °FMild.2 mph73%29.92 "HgN/A
6:00 AM63 °FOvercast.1 mph78%29.92 "Hg6 mi
5:00 AM63 °FMild.3 mph79%29.93 "HgN/A
4:00 AM63 °FMild.2 mph81%29.92 "HgN/A
3:00 AM63 °FOvercast.1 mph81%29.91 "Hg6 mi
2:00 AM63 °FMild.6 mph81%29.90 "HgN/A
1:00 AM63 °FMild.6 mph81%29.91 "HgN/A
12:00 AM62 °FMild.8 mph82%29.91 "HgN/A
11:00 PM
Sun, Jul 5
62 °FMild.5 mph83%29.91 "HgN/A
10:00 PM63 °FMild.7 mph78%29.91 "HgN/A
9:00 PM64 °FOvercast.5 mph77%29.91 "Hg6 mi
8:00 PM64 °FMild.6 mph77%29.90 "HgN/A
7:00 PM64 °FMild.8 mph78%29.89 "HgN/A
6:00 PM64 °FOvercast.10 mph77%29.88 "Hg9 mi
Weather by CustomWeather, © 2015

See weather overviewHow to use our weather pages